Change the Weather History Date:

Wednesday, February 26, 2014

  Actual Average Record
Temperature  
Mean Temperature 14 °F 26 °F  
Max Temperature 37 °F 39 °F 66 °F (1932)
Min Temperature -9 °F 14 °F -34 °F (2011)
Degree Days  
Heating Degree Days 51 39  
Month to date heating degree days 1357 1112  
Since 1 July heating degree days 6204 6042  
Cooling Degree Days 0 0  
Month to date cooling degree days 0 0  
Year to date cooling degree days 0 0  
Moisture  
Dew Point 1 °F    
Average Humidity 57    
Maximum Humidity 82    
Minimum Humidity 32    
Precipitation  
Precipitation 0.00 in 0.01 in 0.45 in (1919)
Month to date precipitation 0.37 0.22  
Year to date precipitation 0.59 0.45  
Snow  
Snow 0.00 in - - ()
Month to date snowfall 0.0  
Since 1 July snowfall 0.0  
Snow Depth 0.00 in    
Sea Level Pressure  
Sea Level Pressure 30.17 in    
Wind  
Wind Speed 10 mph (NW)    
Max Wind Speed 22 mph    
Max Gust Speed 25 mph    
T = Trace of Precipitation, MM = Missing Value Source: NWS Daily Summary

Daily Weather History Graph

Daily Weather History Graph

Search for Another Location

Airport or City:

Trip Planner

Search our weather history database for the weather conditions in past years. The results will help you decide how hot, cold, wet, or windy it might be!

Date:

Astronomy

Feb. 26, 2014 Rise Set
Actual Time 6:53 AM MST 5:48 PM MST
Civil Twilight 6:22 AM MST 6:19 PM MST
Nautical Twilight 5:47 AM MST 6:54 PM MST
Astronomical Twilight 5:11 AM MST 7:30 PM MST
Moon 4:50 AM MST (2/26) 2:59 PM MST (2/26)
Length of Visible Light 11h 56m
Length of Day
10h 55m
Waning Crescent, 9% of the Moon is Illuminated
Feb 26
Waning Crescent
Mar 1
New
Mar 8
First Quarter
Mar 16
Full
Mar 23
Last Quarter

Hourly Weather History & Observations

Time (MST) Temp. Windchill Dew Point Humidity Pressure Visibility Wind Dir Wind Speed Gust Speed Precip Events Conditions
12:48 AM -6.0 °F - -9.9 °F 83% 30.35 in - Calm Calm - N/A   Unknown
1:48 AM -2.0 °F -10.1 °F -8.0 °F 76% 30.32 in - West 3.5 mph - N/A   Unknown
2:48 AM -4.0 °F -19.0 °F -9.9 °F 76% 30.30 in - West 8.1 mph - N/A   Unknown
3:48 AM -2.0 °F -19.6 °F -8.0 °F 76% 30.26 in - West 11.5 mph - N/A   Unknown
4:48 AM -0.0 °F -18.7 °F -7.1 °F 72% 30.23 in - West 13.8 mph - N/A   Unknown
5:48 AM 1.0 °F -17.3 °F -7.1 °F 69% 30.22 in - West 13.8 mph - N/A   Unknown
6:48 AM 1.9 °F -14.7 °F -6.0 °F 69% 30.23 in - West 11.5 mph - N/A   Unknown
7:48 AM 9.0 °F -6.6 °F -2.9 °F 59% 30.22 in - WNW 12.7 mph - N/A   Unknown
8:48 AM 17.1 °F 3.6 °F 1.9 °F 52% 30.21 in - West 12.7 mph - N/A   Unknown
9:48 AM 21.0 °F 6.6 °F 3.9 °F 48% 30.20 in - WNW 17.3 mph - N/A   Unknown
10:48 AM 26.1 °F 14.5 °F 8.1 °F 47% 30.19 in - WNW 13.8 mph - N/A   Unknown
11:48 AM 28.9 °F 17.3 °F 7.0 °F 40% 30.17 in - WNW 16.1 mph - N/A   Unknown
12:48 PM 35.1 °F 26.4 °F 8.1 °F 33% 30.14 in - WNW 12.7 mph 25.3 mph N/A   Unknown
1:48 PM 36.0 °F 25.6 °F 8.1 °F 31% 30.11 in - NW 18.4 mph 24.2 mph N/A   Unknown
2:48 PM 37.0 °F 27.4 °F 12.0 °F 36% 30.09 in - NW 17.3 mph - N/A   Unknown
3:48 PM 36.0 °F 27.1 °F 10.0 °F 34% 30.09 in - NW 13.8 mph - N/A   Unknown
4:48 PM 33.1 °F 25.5 °F 6.1 °F 32% 30.09 in - NNW 9.2 mph - N/A   Unknown
5:48 PM 23.0 °F 15.8 °F 8.1 °F 53% 30.10 in - NNW 5.8 mph - N/A   Unknown
6:48 PM 14.0 °F 3.9 °F 6.1 °F 71% 30.11 in - Variable 6.9 mph - N/A   Unknown
7:48 PM 10.9 °F - 3.9 °F 73% 30.10 in - Calm Calm - N/A   Unknown
8:48 PM 15.1 °F 4.2 °F 5.0 °F 64% 30.08 in - ENE 8.1 mph - N/A   Unknown
9:48 PM 12.0 °F 1.5 °F 3.0 °F 67% 30.08 in - East 6.9 mph - N/A   Unknown
10:48 PM 9.0 °F -3.2 °F 1.9 °F 73% 30.07 in - ENE 8.1 mph - N/A   Unknown
11:48 PM 7.0 °F -3.3 °F 1.0 °F 77% 30.05 in - ENE 5.8 mph - N/A   Unknown